User: anonymous   Login
Location: Stara Lesna
(49.1528°N, 20.2911°E)
Time: 03:37:06
(UTC+01:00)
Language:

NOSS 3-2 (C) - Orbit

View from above orbital plane
View from above orbital plane
View from above satellite
View from above satellite

Ground track
Ground track

The orbit data is extracted from the following two-line orbital elements,

1 28097U 03054C   19315.77729364 0.00000000  00000-0  00000-0 0    05
2 28097  63.4195 236.9454 0384870 358.5342   1.4658 13.40759156    04
Epoch (UTC): 11 November 2019 18:39:18
Eccentricity: 0.0384870
inclination: 63.4195°
perigee height: 818 km
apogee height: 1394 km
right ascension of ascending node: 236.9454°
argument of perigee: 358.5342°
revolutions per day: 13.40759156
mean anomaly at epoch: 1.4658°
orbit number at epoch: 0

The dashed part of the orbit path shows where the satellite is in the earth's shadow,  

DLR